43P/Wolf-Harrington (2016)

Japanese version
Home page
Updated on February 7, 2017

---------------------------------------------------------------------

* Profile

* Pictures

* Orbital Elements

Epoch 2016 July 31.0 TT = JDT 2457600.5
T 2016 Aug. 19.69596 TT                                 MPCW
q   1.3579481            (2000.0)            P               Q
n   0.16080833     Peri.  191.59819     +0.15627099     -0.95337097
a   3.3491173      Node   249.83331     +0.92678535     +0.23192254
e   0.5945355      Incl.   15.96528     +0.34153813     -0.19312101
P   6.13
From 2444 observations 1997 July 18-2016 Aug. 13, mean residual 0".7.
     Nongravitational parameters A1 = +0.19, A2 = -0.0097.

* Finding Charts

* Magnitudes Graph

        m1 = 8.0 + 5 log d + 19.0 log r

---------------------------------------------------------------------

The orbital elements are published on M.P.E.C. 2016-Q04.
The charts are made with StellaNavigator Ver.8 (AstroArts).
The magnitudes graphs are made with Comet for Windows.

---------------------------------------------------------------------

Copyright(C) Seiichi Yoshida (comet@aerith.net). All rights reserved.